Weather History for Laredo, TX

Change the Weather History Date:

Sunday, March 23, 2014

  Actual Average Record
Temperature  
Mean Temperature 68 °F 70 °F  
Max Temperature 76 °F 82 °F 101 °F (1975)
Min Temperature 59 °F 59 °F 39 °F (1932)
Degree Days  
Heating Degree Days 0 1  
Month to date heating degree days 93 61  
Since 1 July heating degree days 1084 905  
Cooling Degree Days 3 7  
Month to date cooling degree days 75 113  
Year to date cooling degree days 187 198  
Growing Degree Days 17 (Base 50)    
Moisture  
Dew Point 62 °F    
Average Humidity 85    
Maximum Humidity 100    
Minimum Humidity 62    
Precipitation  
Precipitation T in 0.04 in 0.34 in (1900)
Month to date precipitation 1.04 0.87  
Year to date precipitation 1.25 2.71  
Sea Level Pressure  
Sea Level Pressure 30.07 in    
Wind  
Wind Speed 12 mph (NE)    
Max Wind Speed 25 mph    
Max Gust Speed 31 mph    
Visibility 8 miles    
Events Rain    
T = Trace of Precipitation, MM = Missing Value Source: NWS Daily Summary

Daily Weather History Graph

Daily Weather History Graph

Search for Another Location

Airport:

Trip Planner

Search our weather history database for the weather conditions in past years. The results will help you decide how hot, cold, wet, or windy it might be!

Date:

Astronomy

Mar. 23, 2014 Rise Set
Actual Time 7:38 AM CDT 7:50 PM CDT
Civil Twilight 7:14 AM CDT 8:14 PM CDT
Nautical Twilight 6:47 AM CDT 8:41 PM CDT
Astronomical Twilight 6:20 AM CDT 9:08 PM CDT
Moon 1:44 AM CDT (3/23) 12:46 PM CDT (3/23)
Length of Visible Light 12h 59m
Length of Day
12h 12m
Waning Gibbous, 54% of the Moon is Illuminated
Mar 23
Waning Gibbous
Mar 23
Last Quarter
Mar 30
New
Apr 7
First Quarter
Apr 15
Full

Hourly Weather History & Observations

Time (CDT) Temp. Dew Point Humidity Pressure Visibility Wind Dir Wind Speed Gust Speed Precip Events Conditions
12:56 AM 75.9 °F 68.0 °F 76% 29.97 in 10.0 mi ESE 8.1 mph - N/A   Overcast
1:56 AM 74.8 °F 68.9 °F 82% 29.97 in 10.0 mi SE 9.2 mph - N/A   Mostly Cloudy
2:56 AM 72.9 °F 68.9 °F 87% 29.96 in 10.0 mi ESE 3.5 mph - N/A   Clear
3:56 AM 70.9 °F 68.9 °F 93% 29.94 in 10.0 mi SE 6.9 mph - N/A   Clear
4:46 AM 69.8 °F 69.8 °F 100% 29.96 in 7.0 mi SE 6.9 mph - N/A   Scattered Clouds
4:56 AM 70.9 °F 70.9 °F 100% 29.94 in 7.0 mi ESE 4.6 mph - N/A   Mostly Cloudy
5:56 AM 70.9 °F 70.9 °F 100% 29.94 in 5.0 mi ESE 4.6 mph - N/A   Overcast
6:56 AM 72.0 °F 72.0 °F 100% 29.96 in 5.0 mi ENE 6.9 mph - N/A   Overcast
7:16 AM 71.6 °F 71.6 °F 100% 30.00 in 5.0 mi NE 6.9 mph - N/A   Overcast
7:34 AM 71.6 °F 71.6 °F 100% 30.01 in 6.0 mi NNE 6.9 mph - N/A   Overcast
7:56 AM 72.9 °F 70.9 °F 93% 29.99 in 5.0 mi NE 9.2 mph - N/A   Overcast
8:18 AM 71.6 °F 71.6 °F 100% 30.03 in 4.0 mi NNE 9.2 mph - 0.00 in   Overcast
8:33 AM 71.6 °F 71.6 °F 100% 30.03 in 3.0 mi NE 9.2 mph - 0.00 in   Mostly Cloudy
8:56 AM 72.0 °F 70.9 °F 96% 30.02 in 4.0 mi NE 10.4 mph - 0.00 in   Mostly Cloudy
9:16 AM 71.6 °F 71.6 °F 100% 30.06 in 5.0 mi NE 10.4 mph - N/A   Mostly Cloudy
9:56 AM 72.0 °F 70.9 °F 96% 30.04 in 7.0 mi NE 13.8 mph - 0.00 in Rain Light Rain
10:56 AM 63.9 °F 63.0 °F 97% 30.10 in 5.0 mi NE 20.7 mph 27.6 mph 0.00 in Rain Light Rain
11:29 AM 62.6 °F 62.6 °F 100% 30.14 in 2.5 mi NE 17.3 mph - 0.00 in Rain Light Rain
11:43 AM 62.6 °F 62.6 °F 100% 30.14 in 4.0 mi NE 24.2 mph 28.8 mph 0.00 in Rain Light Rain
11:56 AM 61.9 °F 61.0 °F 97% 30.12 in 6.0 mi NE 18.4 mph - 0.00 in Rain Light Rain
12:33 PM 64.4 °F 57.2 °F 77% 30.15 in 10.0 mi NE 20.7 mph 26.5 mph 0.00 in   Overcast
12:56 PM 63.9 °F 54.9 °F 72% 30.13 in 10.0 mi NNE 20.7 mph - 0.00 in   Overcast
1:56 PM 63.0 °F 52.9 °F 70% 30.12 in 10.0 mi NE 16.1 mph - N/A   Overcast
2:56 PM 59.9 °F 52.9 °F 78% 30.13 in 8.0 mi North 16.1 mph - 0.00 in Rain Rain
3:56 PM 59.9 °F 54.0 °F 81% 30.13 in 10.0 mi North 16.1 mph - 0.00 in   Overcast
4:56 PM 61.0 °F 52.0 °F 72% 30.11 in 10.0 mi North 21.9 mph - N/A   Overcast
5:56 PM 61.0 °F 50.9 °F 69% 30.12 in 10.0 mi North 18.4 mph 23.0 mph N/A   Overcast
6:56 PM 61.0 °F 50.9 °F 69% 30.15 in 10.0 mi North 12.7 mph - N/A   Overcast
7:33 PM 60.8 °F 50.0 °F 68% 30.18 in 10.0 mi North 12.7 mph - N/A   Overcast
7:56 PM 61.0 °F 50.0 °F 67% 30.17 in 10.0 mi North 8.1 mph - N/A   Overcast
8:56 PM 61.9 °F 50.0 °F 65% 30.19 in 10.0 mi North 8.1 mph - N/A   Overcast
9:56 PM 61.0 °F 50.9 °F 69% 30.19 in 10.0 mi NNE 8.1 mph - N/A   Overcast
10:56 PM 61.0 °F 50.0 °F 67% 30.19 in 10.0 mi NE 5.8 mph - N/A   Mostly Cloudy
11:56 PM 59.9 °F 46.9 °F 62% 30.20 in 10.0 mi NE 6.9 mph - N/A   Mostly Cloudy